DELTA 1 DEB, 42579

Orbit data source: Space-Track

DELTA 1 DEB, 42579 is space debris in SSO originally from a launch on Tue, 06 Nov 1973 UTC launched from the Air Force Western Test Range (AFWTR). Debris objects in space refer to the collection of defunct objects orbiting the Earth. Examples of debris include non-operational satellites, rocket bodies, and fragments generated from explosions, collisions, or faulty payload assembly.

Loading next visibility...
Identifier
42579, 1973-086HT
Orbit
SSO
Country
Flag of USUS
Related business
Manufacturer
Unknown
Mission
Spacecraft
Bus & Motor
Unknown
Mass
Unknown
Launch date (UTC)
1973-11-06 (53 years ago)
Launch vehicle
Unknown
Launch site
Air Force Western Test Range (AFWTR)
Object type
Payload
Rocket body
Debris
Shape & HBR
Unknown shape, 0.1 m
Radar Cross Section
Medium (>0.1 m² and <1 m²)

Expand to show TLE details & history
Last TLE update: 1 month ago

TLE from 1 month ago
0 DELTA 1 DEB
1 42579U 73086HT  26226.48165809  .00000000  00000-0  41170-3 0  9996
2 42579 102.5941 243.6849 0079150 255.6545 103.5711 12.26807567217744
Epoch: 2026-08-14T11:33Z
TLE epoch observation values (Epoch: 2026-08-14T11:33:35.258Z)
Latitude
-0.00009°
Longitude
107.38175°
Altitude
1,580.755 km
Speed
7.071 km/s
True Right ascension
16h 14m 44s
True Declination
0° 00' 00"
Sunlit
Object was in daylight at epoch
Visualization orbit readout
Latitude
Unknown
Longitude
Unknown
Altitude
Unknown
Speed
Unknown
Apparent Right ascension
Unknown
Apparent Declination
Unknown
Sunlit
N/A
Visualization observer readout
Local Sidereal Time
05:59:29
Azimuth
Unknown
Elevation
Unknown
Doppler factor
Unknown
Orbital elements
Apogee altitude
1,623.491 km
Perigee altitude
1,497.82 km
Semi-major axis
7,938.793 km
Eccentricity
0.00792
Inclination
102.5941°
RAAN
243.6849°
Arg. of periapsis
255.6545°
True anomaly
104.45069°
Mean anomaly
103.5711°
Eccentric anomaly
104.0111°
Mean motion
3.0684 °/min
Orbital period
117.33 mins
BSTAR
0.0004117
Loading maneuver chart data...
Computing Atmospheric mass density...
Loading historical data...
Loading historical data...
Loading historical data...
Loading historical data...
Loading historical data...
Loading historical data...
Loading historical data...

Documentation

Showing up to 5 results
|